User: anonymous
Location: Key Biscayne
(25.6930°N, 80.1630°W)
Time: 01:14:43
(UTC-04:00)
Language:

CZ-2D R/B - Orbit

View from above orbital plane
View from above orbital plane
View from above satellite
View from above satellite

Ground track
Ground track

The orbit data is extracted from the following two-line orbital elements,

1 28738U 05024B   14237.10538165  .00001333  00000-0  93304-4 0  8302
2 28738 097.6261 271.7874 0011613 285.4722 074.5223 15.06928328500843
Epoch (UTC): 25 August 2014 02:31:44
Eccentricity: 0.0011613
inclination: 97.6261°
perigee height: 537 km
apogee height: 553 km
right ascension of ascending node: 271.7874°
argument of perigee: 285.4722°
revolutions per day: 15.06928328
mean anomaly at epoch: 74.5223°
orbit number at epoch: 50084

The dashed part of the orbit path shows where the satellite is in the earth's shadow,  

DLR